Location: Newark
(49.8348°N, 24.0280°E)
Time: 20:16:51
(UTC+00:00)

Explorer 7 - Pass Details

Date: 22 January 2020
Orbit: 485 x 679 km, 50.3° (Epoch: 19 February)

Event Time Altitude Azimuth Distance (km) Brightness Sun altitude
Rises 01:39:39 0° 276° (W) 2,560 - -42.8°
Reaches altitude 10° 01:41:47 10° 277° (W) 1,690 - -42.5°
Maximum altitude 01:45:36 85° 7° (N) 513 - -41.9°
Drops below altitude 10° 01:49:36 10° 96° (E) 1,764 - -41.3°
Exits shadow 01:51:09 - 96° (E) 2,391 10.7 -41.1°
Sets 01:51:52 0° 97° (E) 2,684 11.0 -41.0°
